• In Uzbekistan
  • List of Countries
  • For 7 days
  • Water Temperature
  • Satellite Maps
  • Weather Map
  • Weather Widgets
  • user-avatar
    Login

    Hourly Weather Rudolstadt

    Today, 18 July, Wednesday

    Time Temperature Precipitation Wind Pressure Humidity
    00:00 +19°C° 0.2 mm 3 mps 741 mmHg 81%
    01:00 +18°C° 0 mm 3 mps 741 mmHg 84%
    02:00 +18°C° 0.3 mm 3 mps 741 mmHg 87%
    03:00 +17°C° 0.3 mm 3 mps 741 mmHg 90%
    04:00 +16°C° 0.3 mm 2 mps 741 mmHg 93%
    05:00 +17°C° 0 mm 3 mps 742 mmHg 90%
    06:00 +18°C° 0 mm 3 mps 742 mmHg 87%
    07:00 +20°C° 0 mm 2 mps 742 mmHg 80%
    08:00 +21°C° 0 mm 3 mps 743 mmHg 74%
    09:00 +22°C° 0 mm 3 mps 743 mmHg 67%
    10:00 +24°C° 0 mm 3 mps 743 mmHg 60%
    11:00 +25°C° 0 mm 4 mps 743 mmHg 57%
    12:00 +25°C° 0 mm 4 mps 743 mmHg 53%
    13:00 +26°C° 0 mm 4 mps 743 mmHg 50%
    14:00 +26°C° 0 mm 4 mps 743 mmHg 50%
    15:00 +26°C° 0 mm 4 mps 743 mmHg 50%
    16:00 +26°C° 0 mm 4 mps 743 mmHg 50%
    17:00 +25°C° 0 mm 3 mps 743 mmHg 56%
    18:00 +24°C° 0 mm 3 mps 743 mmHg 62%
    19:00 +23°C° 0 mm 2 mps 743 mmHg 68%
    20:00 +20°C° 0 mm 2 mps 743 mmHg 73%
    21:00 +19°C° 0 mm 2 mps 743 mmHg 78%
    22:00 +17°C° 0 mm 2 mps 743 mmHg 84%
    23:00 +16°C° 0 mm 2 mps 744 mmHg 85%

    Tomorrow, 19 July, Thursday

    Time Temperature Precipitation Wind Pressure Humidity
    00:00 +16°C° 0 mm 2 mps 744 mmHg 86%
    01:00 +15°C° 0 mm 1 mps 744 mmHg 87%
    02:00 +14°C° 0 mm 1 mps 744 mmHg 88%
    03:00 +14°C° 0 mm 1 mps 744 mmHg 88%
    04:00 +13°C° 0 mm 1 mps 744 mmHg 89%
    05:00 +15°C° 0 mm 1 mps 744 mmHg 84%
    06:00 +16°C° 0 mm 1 mps 744 mmHg 78%
    07:00 +18°C° 0 mm 1 mps 744 mmHg 73%
    08:00 +20°C° 0 mm 1 mps 744 mmHg 66%
    09:00 +21°C° 0 mm 2 mps 744 mmHg 60%
    10:00 +24°C° 0 mm 2 mps 744 mmHg 53%
    11:00 +25°C° 0 mm 2 mps 744 mmHg 49%
    12:00 +25°C° 0 mm 2 mps 744 mmHg 46%
    13:00 +26°C° 0 mm 2 mps 744 mmHg 42%
    14:00 +26°C° 0 mm 2 mps 744 mmHg 42%
    15:00 +27°C° 0 mm 2 mps 744 mmHg 42%
    16:00 +27°C° 0 mm 2 mps 743 mmHg 42%
    17:00 +26°C° 0 mm 2 mps 743 mmHg 48%
    18:00 +24°C° 0 mm 2 mps 743 mmHg 54%
    19:00 +23°C° 0 mm 1 mps 743 mmHg 60%
    20:00 +22°C° 0 mm 1 mps 743 mmHg 63%
    21:00 +20°C° 0 mm 1 mps 743 mmHg 66%
    22:00 +18°C° 0 mm 1 mps 744 mmHg 69%
    23:00 +16°C° 0 mm 1 mps 743 mmHg 71%

    Day after tomorrow, 20 July, Friday

    Time Temperature Precipitation Wind Pressure Humidity
    00:00 +16°C° 0 mm 1 mps 743 mmHg 74%
    01:00 +14°C° 0 mm 0 mps 743 mmHg 76%
    02:00 +14°C° 0 mm 0 mps 743 mmHg 77%
    03:00 +13°C° 0 mm 0 mps 743 mmHg 79%
    04:00 +13°C° 0 mm 0 mps 743 mmHg 80%
    05:00 +15°C° 0 mm 0 mps 743 mmHg 75%
    06:00 +16°C° 0 mm 0 mps 743 mmHg 70%
    07:00 +18°C° 0 mm 0 mps 743 mmHg 65%
    08:00 +22°C° 0 mm 1 mps 743 mmHg 59%
    09:00 +24°C° 0 mm 1 mps 743 mmHg 53%
    10:00 +26°C° 0 mm 1 mps 743 mmHg 47%
    11:00 +27°C° 0 mm 1 mps 742 mmHg 44%
    12:00 +28°C° 0 mm 1 mps 742 mmHg 41%
    13:00 +29°C° 0 mm 1 mps 742 mmHg 38%
    14:00 +29°C° 0 mm 1 mps 741 mmHg 38%
    15:00 +29°C° 0 mm 1 mps 741 mmHg 38%
    16:00 +29°C° 0 mm 1 mps 740 mmHg 38%
    17:00 +28°C° 0 mm 1 mps 740 mmHg 45%
    18:00 +26°C° 0 mm 2 mps 740 mmHg 53%
    19:00 +25°C° 0 mm 2 mps 739 mmHg 60%
    20:00 +23°C° 0 mm 2 mps 739 mmHg 65%
    21:00 +21°C° 0 mm 2 mps 739 mmHg 69%
    22:00 +19°C° 0 mm 2 mps 739 mmHg 74%
    23:00 +18°C° 0.2 mm 2 mps 739 mmHg 76%

    21 July, Saturday

    Time Temperature Precipitation Wind Pressure Humidity
    00:00 +18°C° 0.2 mm 2 mps 739 mmHg 78%
    01:00 +17°C° 0.2 mm 2 mps 739 mmHg 81%
    02:00 +17°C° 0.5 mm 2 mps 738 mmHg 83%
    03:00 +18°C° 0.5 mm 1 mps 738 mmHg 85%
    04:00 +18°C° 0.5 mm 1 mps 738 mmHg 87%
    05:00 +19°C° 0.4 mm 1 mps 738 mmHg 86%
    06:00 +19°C° 0.4 mm 1 mps 738 mmHg 85%
    07:00 +20°C° 0.4 mm 1 mps 738 mmHg 85%
    08:00 +22°C° 0.6 mm 1 mps 738 mmHg 81%
    09:00 +23°C° 0.6 mm 1 mps 738 mmHg 77%
    10:00 +25°C° 0.6 mm 2 mps 738 mmHg 73%
    11:00 +25°C° 1.2 mm 2 mps 738 mmHg 71%
    12:00 +26°C° 1.2 mm 2 mps 738 mmHg 69%
    13:00 +26°C° 1.2 mm 2 mps 738 mmHg 68%
    14:00 +26°C° 1.3 mm 2 mps 737 mmHg 69%
    15:00 +26°C° 1.3 mm 2 mps 737 mmHg 71%
    16:00 +26°C° 1.3 mm 3 mps 737 mmHg 73%
    17:00 +25°C° 0.8 mm 2 mps 737 mmHg 78%
    18:00 +24°C° 0.8 mm 2 mps 737 mmHg 82%
    19:00 +23°C° 0.8 mm 2 mps 737 mmHg 87%
    20:00 +20°C° 0.4 mm 3 mps 737 mmHg 89%
    21:00 +19°C° 0.4 mm 3 mps 738 mmHg 91%
    22:00 +18°C° 0.4 mm 3 mps 738 mmHg 93%
    23:00 +18°C° 0.1 mm 3 mps 738 mmHg 94%

    22 July, Sunday

    Time Temperature Precipitation Wind Pressure Humidity
    00:00 +17°C° 0.1 mm 3 mps 738 mmHg 95%
    01:00 +16°C° 0.1 mm 3 mps 738 mmHg 96%
    02:00 +16°C° 0 mm 3 mps 739 mmHg 96%
    03:00 +16°C° 0 mm 3 mps 739 mmHg 96%
    04:00 +14°C° 0 mm 3 mps 739 mmHg 96%
    05:00 +16°C° 0 mm 3 mps 739 mmHg 94%
    06:00 +16°C° 0 mm 3 mps 740 mmHg 92%
    07:00 +17°C° 0 mm 4 mps 740 mmHg 89%
    08:00 +17°C° 0 mm 4 mps 740 mmHg 86%
    09:00 +18°C° 0 mm 4 mps 740 mmHg 83%
    10:00 +19°C° 0 mm 4 mps 741 mmHg 79%
    11:00 +19°C° 0.2 mm 4 mps 741 mmHg 76%
    12:00 +20°C° 0.2 mm 4 mps 741 mmHg 73%
    13:00 +21°C° 0.2 mm 4 mps 741 mmHg 70%
    14:00 +21°C° 0.4 mm 4 mps 741 mmHg 71%
    15:00 +21°C° 0.4 mm 3 mps 741 mmHg 73%
    16:00 +21°C° 0.4 mm 3 mps 741 mmHg 74%
    17:00 +21°C° 0.2 mm 3 mps 741 mmHg 77%
    18:00 +20°C° 0.2 mm 2 mps 741 mmHg 79%
    19:00 +20°C° 0.2 mm 2 mps 741 mmHg 82%
    20:00 +18°C° 0 mm 2 mps 742 mmHg 85%
    21:00 +17°C° 0 mm 2 mps 742 mmHg 89%
    22:00 +16°C° 0 mm 2 mps 743 mmHg 93%
    23:00 +15°C° 0 mm 2 mps 743 mmHg 93%

    23 July, Monday

    Time Temperature Precipitation Wind Pressure Humidity
    00:00 +15°C° 0 mm 2 mps 743 mmHg 94%
    01:00 +14°C° 0 mm 1 mps 743 mmHg 95%
    02:00 +14°C° 0 mm 1 mps 743 mmHg 95%
    03:00 +13°C° 0 mm 1 mps 743 mmHg 95%
    04:00 +13°C° 0 mm 1 mps 743 mmHg 95%
    05:00 +14°C° 0 mm 1 mps 744 mmHg 92%
    06:00 +15°C° 0 mm 1 mps 744 mmHg 88%
    07:00 +16°C° 0 mm 1 mps 744 mmHg 85%
    08:00 +19°C° 0 mm 1 mps 744 mmHg 78%
    09:00 +21°C° 0 mm 1 mps 744 mmHg 72%
    10:00 +23°C° 0 mm 1 mps 744 mmHg 65%
    11:00 +24°C° 0 mm 1 mps 744 mmHg 62%
    12:00 +25°C° 0 mm 1 mps 744 mmHg 59%
    13:00 +26°C° 0 mm 1 mps 743 mmHg 55%
    14:00 +26°C° 0 mm 1 mps 743 mmHg 53%
    15:00 +26°C° 0 mm 1 mps 743 mmHg 51%
    16:00 +27°C° 0 mm 1 mps 743 mmHg 49%
    17:00 +26°C° 0 mm 1 mps 743 mmHg 55%
    18:00 +25°C° 0 mm 1 mps 743 mmHg 61%
    19:00 +24°C° 0 mm 1 mps 742 mmHg 66%
    20:00 +22°C° 0 mm 1 mps 743 mmHg 71%
    21:00 +20°C° 0 mm 1 mps 743 mmHg 76%
    22:00 +18°C° 0 mm 1 mps 743 mmHg 81%
    23:00 +18°C° 0 mm 1 mps 743 mmHg 83%
    Show more